Address 0xe56815ddddfcc733b83cf4b9fd156b50cc4dd43d 1

 
 
Txn Hash Method
Block
From
To
Value [Txn Fee]
0xce4831b9a2d66626d30491b5372fd1052d8dfeba671ae84f782543dcd97d6a99Claim296722532022-06-17 9:53:4814 days 48 mins ago0xe56815ddddfcc733b83cf4b9fd156b50cc4dd43dOUT 0x28caa843cb577d892a8b6ec3f24aa682ed22be680 MATIC0.004002570001 33.000000014
0xae0d13722bd408f61e779b8b2c552707536b9e295654c2636c39e4aac8f21714Deposit From296332582022-06-16 10:07:3915 days 34 mins ago0xe56815ddddfcc733b83cf4b9fd156b50cc4dd43dOUT 0x28caa843cb577d892a8b6ec3f24aa682ed22be680 MATIC0.005719773908 33.739206322
0x3d1c77dab25936185c7a05145b2045a328c77db2b5e020de7f3b08545f10f92eClaim296332432022-06-16 10:06:3915 days 35 mins ago0xe56815ddddfcc733b83cf4b9fd156b50cc4dd43dOUT 0x28caa843cb577d892a8b6ec3f24aa682ed22be680 MATIC0.004011911831 33.077020626
0x3c1317877d2f94d010459787b8703122938f52049a4d5aba65899444287b67f3Transfer296332262022-06-16 10:05:3115 days 36 mins ago0x5b2daa876cfbb4fe17a7b06795730423aa4717ca IN 0xe56815ddddfcc733b83cf4b9fd156b50cc4dd43d1 MATIC0.000630003508 30.000167053
0xc4178e686dcf55c15552b2504fe1eaa619269e59cdaf1049e04354ee6ef02df9Claim295937032022-06-15 10:03:3416 days 38 mins ago0xe56815ddddfcc733b83cf4b9fd156b50cc4dd43dOUT 0x28caa843cb577d892a8b6ec3f24aa682ed22be680 MATIC0.007724896575 63.68947626
0xaf9ad9b8be1df24bfcb304a2f8c90f49fb4994fd1e7c49a6058540082a7d6b39Deposit From295514492022-06-14 9:04:4217 days 1 hr ago0xe56815ddddfcc733b83cf4b9fd156b50cc4dd43dOUT 0x28caa843cb577d892a8b6ec3f24aa682ed22be680 MATIC0.0067333527 39.717999281
0x4b88fd7a3a3394b2b0aa3661895153de32ce5560cb0164ee0065b686aa43548dClaim295512562022-06-14 8:57:1217 days 1 hr ago0xe56815ddddfcc733b83cf4b9fd156b50cc4dd43dOUT 0x28caa843cb577d892a8b6ec3f24aa682ed22be680 MATIC0.006182978037 50.976816206
0x8140a4571505ba6b582dd2b4784f148b5d0b56509e3bafa862c5616d961dafd5Deposit From295120212022-06-13 9:24:1218 days 1 hr ago0xe56815ddddfcc733b83cf4b9fd156b50cc4dd43dOUT 0x28caa843cb577d892a8b6ec3f24aa682ed22be680 MATIC0.097165317533 573.148650284
0x55451c6235a456ec7ae4d4f982201ea08d09bb03e5c4545ca4a31ad0a5f29764Claim295119342022-06-13 9:21:1018 days 1 hr ago0xe56815ddddfcc733b83cf4b9fd156b50cc4dd43dOUT 0x28caa843cb577d892a8b6ec3f24aa682ed22be680 MATIC0.118567030589 977.549926534
0xb54bd07aa6963adbf86d5482b10759a049a376b7136d11901407046eb18ac0c8Claim295113392022-06-13 9:00:4418 days 1 hr ago0xe56815ddddfcc733b83cf4b9fd156b50cc4dd43dOUT 0xe0ff071e9c2f7ca021dbc7e4630a8e92a90c92420 MATIC0.730557095545 13,318.45287487
0x43deedb206ab47f220e9d3b55022165155e9c73f7a2ff9c96b2e40e3930ce061Deposit From293884182022-06-10 8:35:0421 days 2 hrs ago0xe56815ddddfcc733b83cf4b9fd156b50cc4dd43dOUT 0x28caa843cb577d892a8b6ec3f24aa682ed22be680 MATIC0.005706347389 33.660007368
0xc39063c6dff7e04ec7a0714d20397d822ec02b0d07cef42918576a338a8d681fClaim293883982022-06-10 8:33:4621 days 2 hrs ago0xe56815ddddfcc733b83cf4b9fd156b50cc4dd43dOUT 0x28caa843cb577d892a8b6ec3f24aa682ed22be680 MATIC0.004082621684 33.660002346
0x2f2b0b0ab9b27ca48e02e987fac1b28c6d0e1dad2a312ca4d3dbbf8f4054c99eClaim293883902022-06-10 8:33:1421 days 2 hrs ago0xe56815ddddfcc733b83cf4b9fd156b50cc4dd43dOUT 0xe0ff071e9c2f7ca021dbc7e4630a8e92a90c92420 MATIC0.001953929467 33.660002192
0xee392489ca0eac35f98e4e2cf43f59d5a367a42a91bbb0f001c5b4bf5331cf66Deposit From293101972022-06-08 9:17:4223 days 1 hr ago0xe56815ddddfcc733b83cf4b9fd156b50cc4dd43dOUT 0x28caa843cb577d892a8b6ec3f24aa682ed22be680 MATIC0.005594457004 33.000000025
0xf533d243659c70535b9b4b29f91b572714a659ea9726f4d9ec7eca804ec86ad2Claim293098882022-06-08 9:07:0823 days 1 hr ago0xe56815ddddfcc733b83cf4b9fd156b50cc4dd43dOUT 0x28caa843cb577d892a8b6ec3f24aa682ed22be680 MATIC0.004002570242 33.000002003
0x391578c70becbff8aeaf33d0357b69f26d00c49320d809f52fd9aa71c6d98736Claim293098752022-06-08 9:06:3823 days 1 hr ago0xe56815ddddfcc733b83cf4b9fd156b50cc4dd43dOUT 0xe0ff071e9c2f7ca021dbc7e4630a8e92a90c92420 MATIC0.00191561725 33.000004309
0x62ec4e5e94f53d4381fd4f355b613eea626ebdf02688e0f76e597faba551f187Deposit From292692742022-06-07 8:49:4324 days 1 hr ago0xe56815ddddfcc733b83cf4b9fd156b50cc4dd43dOUT 0x28caa843cb577d892a8b6ec3f24aa682ed22be680 MATIC0.005594457003 33.000000023
0xf284fc0bd92563ad9ba1802e976c3fb2e43431925651f11fa9c97b9cc399a6ccClaim292692422022-06-07 8:48:3524 days 1 hr ago0xe56815ddddfcc733b83cf4b9fd156b50cc4dd43dOUT 0x28caa843cb577d892a8b6ec3f24aa682ed22be680 MATIC0.004002570004 33.000000033
0x2c2310f537ac93a555f07d86fb0e07d3a4a4cedd2ab2c78de8bfa3506f8b0fd6Claim292692312022-06-07 8:48:1324 days 1 hr ago0xe56815ddddfcc733b83cf4b9fd156b50cc4dd43dOUT 0xe0ff071e9c2f7ca021dbc7e4630a8e92a90c92420 MATIC0.001915617001 33.000000028
0xc394c8b5b9483546602e33d7ae72f6342c6f4606c95b45f7f84ba323983fbb3dDeposit From292304542022-06-06 9:24:5925 days 1 hr ago0xe56815ddddfcc733b83cf4b9fd156b50cc4dd43dOUT 0x28caa843cb577d892a8b6ec3f24aa682ed22be680 MATIC0.005780938904 34.100000024
0x3388bbea439331936624a3a3256775d1ce311f70e01dc3f6274464ec613c857dClaim292304312022-06-06 9:24:1325 days 1 hr ago0xe56815ddddfcc733b83cf4b9fd156b50cc4dd43dOUT 0x28caa843cb577d892a8b6ec3f24aa682ed22be680 MATIC0.004135989009 34.100000075
0x8282097d54a495a6e36fc65138da6f1076b80a14cbefb7811ec4671364c5b931Claim292304262022-06-06 9:24:0325 days 1 hr ago0xe56815ddddfcc733b83cf4b9fd156b50cc4dd43dOUT 0xe0ff071e9c2f7ca021dbc7e4630a8e92a90c92420 MATIC0.001979470906 34.100000104
0x52720552bdb4ac80490dee3ef75b938e7a0e8ac0dce96742f7e3cbbe75bfed2eClaim291085672022-06-03 8:56:3828 days 1 hr ago0xe56815ddddfcc733b83cf4b9fd156b50cc4dd43dOUT 0x28caa843cb577d892a8b6ec3f24aa682ed22be680 MATIC0.007521614312 62.013474417
0xe32c7e5d1bd8b860f8d81cfcdb21e362e7436282800043ac1de505992adf4fa8Claim291085532022-06-03 8:56:1028 days 1 hr ago0xe56815ddddfcc733b83cf4b9fd156b50cc4dd43dOUT 0x28caa843cb577d892a8b6ec3f24aa682ed22be680 MATIC0.007578873848 62.485562277
0xef2570f0d068d46ef1f95915cc2e4a2180208e15329390e73eaa4fecd224744fClaim291084392022-06-03 8:50:5428 days 1 hr ago0xe56815ddddfcc733b83cf4b9fd156b50cc4dd43dOUT 0xe0ff071e9c2f7ca021dbc7e4630a8e92a90c92420 MATIC0.001981918287 34.142160721
[ Download CSV Export 
Parent Txn Hash Block From To Value
Loading

Contract Name:
0 MATIC

Compiler Version
0

Optimization Enabled:
0 MATIC

Other Settings:
-NA-
Block Transaction Gas Used Reward
Age Block Fee Address BC Fee Address Voting Power Jailed Incoming
Block Uncle Number Difficulty Gas Used Reward
Loading
Loading
Make sure to use the "Vote Down" button for any spammy posts, and the "Vote Up" for interesting conversations.